Regional Weather Roundup
Issued by NWS

Home | Current Version | Previous Version | Text Only | Print | Product List | Glossary On
Versions: 1 2 3 4 5 6 7 8 9 10 11 12 13 14 15 16 17 18 19 20 21 22 23 24 25 26 27 28 29 30 31 32 33 34 35 36 37 38 39 40 41 42 43 44 45 46 47 48 49 50
000
ASUS42 KTBW 291817
RWRFL
FLORIDA REGIONAL WEATHER ROUNDUP
NATIONAL WEATHER SERVICE TAMPA BAY RUSKIN FL
200 PM EDT WED JUL 29 2015

NOTE: "FAIR" INDICATES FEW OR NO CLOUDS BELOW 12,000 FEET WITH NO
SIGNIFICANT WEATHER AND/OR OBSTRUCTIONS TO VISIBILITY.


FLZ001>010-012>015-112-114-115-291900-
PANHANDLE FLORIDA

CITY           SKY/WX    TMP DP  RH WIND       PRES   REMARKS
PENSACOLA      FAIR      94  72  48 NE5       29.96F HX 102
PENSACOLA NAS  PTSUNNY   96  73  47 NW7       29.96F HX 105
MILTON NAS     PTSUNNY   97  76  50 VRB5      29.96  HX 110
CRESTVIEW      SUNNY     98  75  47 MISG      29.98F HX 110
DUKE FIELD     PTSUNNY   97  73  45 N6G17     29.96F HX 107
VALPARAISO     PTSUNNY   97  74  46 CALM      29.96F HX 107
MARY ESTHER    FAIR      96  76  53 SW9       29.94  HX 109
TRI COUNTY     FAIR      96  75  50 N5        29.95F HX 108
PANAMA CITY    FAIR      96  74  48 VRB7      29.95F HX 107
TYNDALL AFB    MOSUNNY   96  78  55 W7        29.95F HX 113
APALACHICOLA   MOSUNNY   99  76  47 VRB7      29.95F HX 113

STATION/POSITION SKY/WX   TEMP    WIND        PRES    WAVE   SWELL
                          AIR SEA DIR/SP/G            HT/PER HT/PER
                          (F)     (DEG/KT/KT) (MB)    (FT/S) (FT/S)
30.1N   87.6W              85 85  290/  8/  8 1014.8F   1/ 4
29.2N   88.2W              86 89  340/  8/  8 1016.3F   2/ 3
28.8N   86.0W              87 87  350/ 10/ 12 1015.6F   2/ 4
PANAMA CITY BEAC           85 83  230/  7/  8 1015.2F
CAPE SAN BLAS    NOT AVBL
TOWER C                    86     280/  7/  7 1014.6F
28.5N   84.5W              87 86  300/  8/ 10 1015.3F   2/ 4   2/ 4

$$
FLZ011-016>038-118-127-128-134-139-239-291900-
NORTH FLORIDA

CITY           SKY/WX    TMP DP  RH WIND       PRES   REMARKS
MARIANNA       MOSUNNY   96  75  50 NW8       29.95F HX 108
TALLAHASSEE    PTSUNNY   96  76  52 NW7       29.95F HX 109
PERRY          MOSUNNY   94  77  56 NW6       29.94F HX 108
CROSS CITY       N/A     93  79  63 SW5       29.93F HX 110
LAKE CITY      FAIR      93  77  59 N6        29.94F HX 107
GAINESVILLE    MOSUNNY   93  76  57 NE7       29.94F HX 105
MAYPORT NAS    PTSUNNY   88  77  69 NE14      29.95F HX 100
JACKSONVILLE   PTSUNNY   93  74  53 N7        29.94F HX 103
JAX NAS        PTSUNNY   95  73  48 N5        29.95F HX 104
JAX CRAIG      SUNNY     91  75  59 NE7       29.94F HX 101
JAX CECIL      MOSUNNY   93  75  55 NE7       29.94F HX 104
FERNANDINA BEA FAIR      90  77  66 NE12      29.95S HX 102
ST AUGUSTINE   MOSUNNY   87  78  74 NE15      29.96F HX 100

STATION/POSITION SKY/WX   TEMP    WIND        PRES    WAVE   SWELL
                          AIR SEA DIR/SP/G            HT/PER HT/PER
                          (F)     (DEG/KT/KT) (MB)    (FT/S) (FT/S)
SHELL POINT                92      10/  6/ 11   N/A
KEATON BEACH               88     250/  7/  8 1014.0F
CEDAR KEY                  85     230/  3/  4 1014.6F
FERNANDINA                 85 85   20/  5/  7 1014.4F
30.7N   81.3W                 83                N/A     2/11
MAYPORT                    83 83   50/ 12/ 14 1015.4F
31.4N   80.9W              82 83   40/ 10/ 12 1015.0F   2/ 6   2/ 6
ST AUGUSTINE               81 83   30/ 12/ 12 1014.9F

$$
FLZ040-043>046-052-053-057-058-063-144-291900-
INTERIOR CENTRAL FLORIDA

CITY           SKY/WX    TMP DP  RH WIND       PRES   REMARKS
OCALA          PTSUNNY   93  75  55 N5        29.93F HX 104
THE VILLAGES     N/A     93 N/A N/A N6        29.84F
LEESBURG       MOSUNNY  N/A N/A N/A SE6       29.95F
SANFORD        PTSUNNY   92  75  57 NE6       29.94F HX 103
ORLANDO EXEC   PTSUNNY   90  76  63 VRB3      29.95F HX 101
ORLANDO INTL   PTSUNNY   89  76  65 W5        29.96F HX 100
KISSIMMEE      MOSUNNY   91  75  59 N7        29.97F HX 102
WINTER HAVEN   PTSUNNY   91  75  59 SW3       29.98F HX 101
LAKELAND       PTSUNNY   90  75  62 SW5       29.99S HX 100
BARTOW         PTSUNNY   90  72  55 W5        29.99F HX  96
OKEECHOBEE     DRIZZLE   73  72  94 SW7       30.03S

$$
FLZ041-047-054-059-064-141-147-291900-
EAST CENTRAL FLORIDA

CITY           SKY/WX    TMP DP  RH WIND       PRES   REMARKS
ORMOND BEACH   MOSUNNY   88  75  66 NE14      29.95F HX  97
DAYTONA BEACH  MOSUNNY   91  73  55 NE15      29.95F HX  99
DELAND           N/A     91  73  55 N3        29.96F HX 100
NEW SMYRNA BEA MOSUNNY   86  75  70 NE12G17   29.96F HX  95
JFK SPACE CTR  CLOUDY    85  75  70 VRB2      29.96F
TITUSVILLE     PTSUNNY   84  75  74 SW6       29.98F
CAPE CANAVERAL CLOUDY    87  77  71 W5        29.95F HX  99
PATRICK AFB    CLOUDY    87  75  67 VRB1      29.96F HX  96
MELBOURNE      CLOUDY    89  74  60 SW6       29.96F HX  98
VERO BEACH     CLOUDY    83  73  72 S14       30.00F
FT PIERCE      CLOUDY    77  75  93 SW8       30.02R FOG
STUART         TSTM      77  72  83 W12G28    30.03R

STATION/POSITION SKY/WX   TEMP    WIND        PRES    WAVE   SWELL
                          AIR SEA DIR/SP/G            HT/PER HT/PER
                          (F)     (DEG/KT/KT) (MB)    (FT/S) (FT/S)
28.5N   80.2W              80 81  260/ 10/ 10 1015.1F
28.9N   78.5W              81 84  210/ 17/ 19 1013.8F
TRIDENT PIER               84 77  310/  3/  7 1015.8R
28.4N   80.5W                 80                N/A     1/11
27.5N   80.2W                 77                N/A     1/11

$$
FLZ050-056-061-142-242-148-248-149-249-151-251-155-255-
160-260-291900-
WEST CENTRAL FLORIDA

CITY           SKY/WX    TMP DP  RH WIND       PRES   REMARKS
CRYSTAL RIVER  TSTM      77  73  88 S8        29.97R
INVERNESS      FAIR      86  77  74 SW8       29.95F THUNDER HX  97
BROOKSVILLE    MOSUNNY   86  76  71 S12       29.97F HX  96
ZEPHYRHILLS    FAIR      86  73  66 SW9       29.99R
CLEARWATER     TSTM      74  73  97 SW7       30.01S FOG
TAMPA INTL     TSTM      75  73  93 W6        30.00F FOG
TAMPA EXEC     LGT RAIN  79  75  89 NW8       30.00R
PLANT CITY     PTSUNNY   86  75  70 NW9G23    30.01R HX  95
MACDILL AFB    LGT RAIN  79  76  90 W9        30.00R
PETER O KNIGHT LGT RAIN  79  73  83 W7G18     29.98F
ST PETERSBURG  LGT RAIN  78  71  79 N13       30.00R
SARASOTA       PTSUNNY   84  74  71 SW12      30.00S
VENICE         FAIR      84  75  74 W6        30.04R

STATION/POSITION SKY/WX   TEMP    WIND        PRES    WAVE   SWELL
                          AIR SEA DIR/SP/G            HT/PER HT/PER
                          (F)     (DEG/KT/KT) (MB)    (FT/S) (FT/S)
CEDAR KEY                  85     230/  3/  4 1014.6F
28.5N   84.5W              87 86  300/  8/ 10 1015.3F   2/ 4   2/ 4
27.3N   84.2W                 84                N/A     2/ 4
CLEARWATER BEACH           84 84  230/ 11/ 12 1016.4R
MIDDLE TAMPA BAY           82     250/ 11/ 12 1016.4F
VENICE                     83 85  240/  7/  7 1016.3F

$$
FLZ066-069-070-075>078-162-262-165-265-291900-
SOUTHWEST FLORIDA AND KEYS

CITY           SKY/WX    TMP DP  RH WIND       PRES   REMARKS
PUNTA GORDA    LGT RAIN  81  77  88 W10       30.03F
FT MYERS       LGT RAIN  79  73  82 W12       30.02F
SOUTHWEST INTL CLOUDY    78  75  90 NW6       30.03F
NAPLES         CLOUDY    83  78  85 NW8       30.03F
MARCO ISLAND   PTCLDY    84  75  74 NW9       30.03F
MARATHON       MOSUNNY   92  77  61 NW6       30.03F HX 105
KEY WEST NAS   PTSUNNY   91  73  55 NW8       30.04S HX  99
KEY WEST INTL  MOSUNNY   92  72  51 NW6       30.04F HX  99

STATION/POSITION SKY/WX   TEMP    WIND        PRES    WAVE   SWELL
                          AIR SEA DIR/SP/G            HT/PER HT/PER
                          (F)     (DEG/KT/KT) (MB)    (FT/S) (FT/S)
VENICE                     83 85  240/  7/  7 1016.3F
NAPLES                        85              1018.2R
26.0N   85.6W              78 84  130/  6/  8 1017.9F   2/ 9   2/ 9
DRY TORTUGAS               85     300/  4/  5 1017.9S
NW FL BAY                  86     280/  7/  8 1017.3
SAND KEY                   85     330/  4/  6 1017.5F
SOMBRERO KEY               86     240/  2/  2 1017.8F
LONG KEY                   86 90  300/  4/  4 1017.9F
MOLASSES REEF              86 87  250/  5/  6 1017.0F

$$
FLZ067-068-071>074-168-172>174-291900-
SOUTHEAST FLORIDA

CITY           SKY/WX    TMP DP  RH WIND       PRES   REMARKS
W PALM BEACH   TSTM      81  74  79 W25G44    30.05R
FT LAUDER-EXEC PTSUNNY   93  72  50 SW13      30.01S HX 101
FT LAUDERDALE  PTSUNNY   91  75  59 SW9       30.00S HX 101
POMPANO BEACH  PTSUNNY   92  71  50 SW10      30.01S HX  98
PEMBROKE PINES PTSUNNY   94  71  47 W12       30.02S HX 101
OPA LOCKA      PTSUNNY   92  71  50 W8        30.02S HX  98
MIAMI          CLOUDY    91  70  49 VRB6      30.02S HX  96
WEST KENDALL   PTSUNNY   93  72  50 SW10      30.02S HX 101
HOMESTEAD      CLOUDY    92  72  50 SW8       30.02S HX  99

STATION/POSITION SKY/WX   TEMP    WIND        PRES    WAVE   SWELL
                          AIR SEA DIR/SP/G            HT/PER HT/PER
                          (F)     (DEG/KT/KT) (MB)    (FT/S) (FT/S)
PORT EVERGLADES            91     260/  6/ 10 1016.4R
VIRGINIA KEY               86 87  200/  5/  7 1016.3F
LAKE WORTH                 88 85  270/  9/ 13 1016.0R


USA.gov is the U.S. government's official web portal to all federal, state and local government web resources and services.